Weather in Sudislavl

Russia / Kostroma Oblast     57°52′54″N   41°42′38″E
temp.,
°C
wind,
m/s
gust,
m/s
humid.,
%
clouds,
%
prec.,
mm/h
press.,
hPa
HPBL,
m
19 january, wed
wed1900:00−12wnw3109698 0.0 1011311
03:00−13wnw389896 0.1 1012178
06:00−17wnw2710096 0.0 1014107
09:00−19wsw2410099 0.0 101441
12:00−12wsw259356 0.0 1014161
15:00−12ssw389493 0.0 1013208
18:00−11ssw4129083 0.0 1012275
21:00−10ssw41389100 0.0 1010371
20 january, thu
thu2000:00−9ssw51494100 0.1 1009430
03:00−9ssw51494100 0.3 1008452
06:00−8ssw51593100 0.2 1006451
09:00−7s51593100 0.3 1005501
12:00−6s51493100 0.1 1006494
15:00−5s51493100 0.3 1005609
18:00−5s61593100 0.1 1005591
21:00−7s61492100 0.2 1006597
21 january, fri
fri2100:00−8s61692100 0.1 1006611
03:00−9s61591100 0.2 1007610
06:00−9s51492100 0.1 1007562
09:00−9sse51293100 0.5 1009492
12:00−8sse51194100 0.5 1010484
15:00−7se51294100 1.1 1010514
18:00−9se51493100 0.4 1010566
21:00−9se51394100 0.9 1011639
22 january, sat
sat2200:00−8ese51393100 0.8 1012690
03:00−7se51294100 1.3 1012749
06:00−8se5119399 0.6 1014558
09:00−9se4109397 0.7 1016380
12:00−7se3894100 0.1 1019383
15:00−8ese3795100 0.1 1020297
18:00−11ese389894 0.0 1023162
21:00−13e279993 0.1 1024114
23 january, sun
sun2300:00−13ene2698100 0.0 1025104
03:00−11ne2697100 0.1 1026163
06:00−9ne2796100 1.0 1026310
09:00−9ene279687 1.4 1027253
12:00−8e259399 0.1 1028274
15:00−6ene139787 0.3 1029166
18:00−10n119897 0.3 103010
21:00−15ssw2210098 0.4 103222